User: anonymous   Login
Location: ??????
(55.8274°N, 37.9338°E)
Time: 22:14:29
(UTC+00:00)
Language:

FENGYUN 3A - Orbit

View from above orbital plane
View from above orbital plane
View from above satellite
View from above satellite

Ground track
Ground track

The orbit data is extracted from the following two-line orbital elements,

1 32958U 08026A   24170.58397837  .00000170  00000-0  10161-3 0  9997
2 32958  98.6041 117.6626 0009881  71.0069 289.2177 14.19106275832044
Epoch (UTC): 18 June 2024 14:00:55
Eccentricity: 0.0009881
inclination: 98.6041°
perigee height: 821 km
apogee height: 835 km
right ascension of ascending node: 117.6626°
argument of perigee: 71.0069°
revolutions per day: 14.19106275
mean anomaly at epoch: 289.2177°
orbit number at epoch: 83204

The dashed part of the orbit path shows where the satellite is in the earth's shadow,  

DLR